M I D A S
Marine Information and Data Acquisition System
Tripno 944 of the Zeeleeuw from 2005-05-19 07:03:27 to 2005-05-19 13:30:32
Back to CruiseResearch ActivitiesStationsMapUnderway DataData graphs

EquipmentUnitsComments
TimeDGPSUTC
LatitudeDGPSDM.mWGS84
LongitudeDGPSDM.mWGS84
SpeedMeteo Stationm/sRelative wind speed
DirectionMeteo StationdegRelative wind direction
TemperatureMeteo Stationdeg CelciusAir temperature
PressureMeteo StationPaAtmospheric pressure
HumidityMeteo Station%Relative humidity
Missing or incorrect values are displayed as -999
Metereological data collected by the RV Zeeleeuw from 2005-05-19 06:55:13 to 2005-05-19 13:41:00
                                                                                    Next 1000 lines
Time Latitude Longitude Speed Direction Temperature Pressure Humidity
2005-05-19 06:55:23 51°13.593 2°56.102 8.5 38 11.9 101920 56
2005-05-19 06:55:29 51°13.591 2°56.105 6 38 11.9 101920 56
2005-05-19 06:55:33 51°13.59 2°56.107 4.6 8 11.9 101920 56
2005-05-19 06:55:39 51°13.588 2°56.112 6.3 33 11.9 101920 56
2005-05-19 06:55:43 51°13.585 2°56.115 8 14 11.9 101920 56
2005-05-19 06:55:49 51°13.582 2°56.121 8.4 33 11.9 101920 56
2005-05-19 06:55:53 51°13.58 2°56.126 8.5 25 11.9 101920 56
2005-05-19 06:55:59 51°13.576 2°56.132 6.2 24 11.9 101920 56
2005-05-19 06:56:03 51°13.572 2°56.138 6.9 21 11.9 101920 57
2005-05-19 06:56:09 51°13.568 2°56.145 7.8 25 11.9 101920 57
2005-05-19 06:56:13 51°13.565 2°56.151 7.8 26 11.9 101910 56
2005-05-19 06:56:19 51°13.561 2°56.158 7.6 15 11.9 101910 56
2005-05-19 06:56:24 51°13.558 2°56.164 5.4 43 11.9 101920 56
2005-05-19 06:56:29 51°13.554 2°56.17 7.5 39 11.9 101920 56
2005-05-19 06:56:33 51°13.551 2°56.176 7 26 11.9 101920 56
2005-05-19 06:56:39 51°13.548 2°56.185 8.4 39 11.9 101920 56
2005-05-19 06:56:43 51°13.546 2°56.192 9 58 11.9 101920 56
2005-05-19 06:56:49 51°13.545 2°56.201 9.7 54 11.9 101920 56
2005-05-19 06:56:53 51°13.544 2°56.208 6.9 44 11.9 101920 56
2005-05-19 06:56:59 51°13.543 2°56.216 5.2 80 11.9 101920 56
2005-05-19 06:57:03 51°13.543 2°56.221 4.1 74 11.9 101920 56
2005-05-19 06:57:09 51°13.544 2°56.226 7 97 11.9 101920 56
2005-05-19 06:57:13 51°13.544 2°56.228 7.7 103 11.9 101920 56
2005-05-19 06:57:19 51°13.545 2°56.231 8.7 97 11.9 101920 56
2005-05-19 06:57:23 51°13.545 2°56.232 6.9 115 11.9 101920 57
2005-05-19 06:57:29 51°13.545 2°56.232 7.1 110 11.9 101920 57
2005-05-19 06:57:33 51°13.545 2°56.231 4.1 124 11.9 101930 56
2005-05-19 06:57:39 51°13.545 2°56.23 4.5 115 11.9 101930 56
2005-05-19 06:57:43 51°13.545 2°56.228 4.2 115 11.9 101920 56
2005-05-19 06:57:49 51°13.544 2°56.225 5.9 125 11.9 101920 56
2005-05-19 06:57:54 51°13.542 2°56.222 5.3 44 11.9 101930 56
2005-05-19 06:57:59 51°13.541 2°56.219 3.7 111 11.9 101930 56
2005-05-19 06:58:04 51°13.54 2°56.216 4.7 120 11.9 101920 56
2005-05-19 06:58:09 51°13.54 2°56.214 4.6 125 11.9 101920 56
2005-05-19 06:58:14 51°13.54 2°56.214 6.4 135 11.9 101930 56
2005-05-19 06:58:19 51°13.541 2°56.215 4.9 123 11.9 101930 56
2005-05-19 06:58:23 51°13.542 2°56.216 4.8 110 12 101920 56
2005-05-19 06:58:29 51°13.545 2°56.217 5 142 12 101920 56
2005-05-19 06:58:34 51°13.546 2°56.218 4.4 142 11.9 101930 56
2005-05-19 06:58:39 51°13.546 2°56.218 3.1 156 11.9 101930 56
2005-05-19 06:58:43 51°13.546 2°56.218 4.7 141 11.9 101920 56
2005-05-19 06:58:49 51°13.546 2°56.218 4.8 139 11.9 101920 56
2005-05-19 06:58:54 51°13.545 2°56.217 4.5 145 12 101930 56
2005-05-19 06:58:59 51°13.543 2°56.217 3.9 152 12 101930 56
2005-05-19 06:59:04 51°13.541 2°56.216 3.9 145 12 101930 56
2005-05-19 06:59:09 51°13.539 2°56.216 4.6 151 12 101930 56
2005-05-19 06:59:14 51°13.537 2°56.215 5 147 12 101930 56
2005-05-19 06:59:19 51°13.535 2°56.214 3.7 158 12 101930 56
2005-05-19 06:59:24 51°13.534 2°56.214 4.4 180 12 101930 56
2005-05-19 06:59:29 51°13.534 2°56.214 2.4 150 12 101930 56
2005-05-19 06:59:34 51°13.535 2°56.213 1.9 190 12 101920 56
2005-05-19 06:59:39 51°13.538 2°56.212 3.6 138 12 101920 56
2005-05-19 06:59:44 51°13.54 2°56.211 2.5 170 12 101930 57
2005-05-19 06:59:49 51°13.542 2°56.21 3.2 177 12 101930 57
2005-05-19 06:59:54 51°13.542 2°56.209 1.8 159 12 101930 57
2005-05-19 06:59:59 51°13.543 2°56.21 2.9 175 12 101930 57
2005-05-19 07:00:04 51°13.542 2°56.21 3.9 196 12 101930 57
2005-05-19 07:00:09 51°13.541 2°56.211 6.7 222 12 101930 57
2005-05-19 07:00:13 51°13.541 2°56.214 5.2 211 12 101930 57
2005-05-19 07:00:19 51°13.538 2°56.217 5.5 218 12 101930 57
2005-05-19 07:00:24 51°13.536 2°56.219 3.9 199 12 101930 57
2005-05-19 07:00:29 51°13.533 2°56.223 4.2 196 12 101930 57
2005-05-19 07:00:34 51°13.531 2°56.226 7.1 214 12 101940 56
2005-05-19 07:00:39 51°13.529 2°56.228 5.8 200 12 101940 56
2005-05-19 07:00:44 51°13.528 2°56.23 5.4 213 12.1 101930 56
2005-05-19 07:00:49 51°13.527 2°56.23 2.8 163 12.1 101930 56
2005-05-19 07:00:54 51°13.528 2°56.229 3.3 198 12.1 101930 56
2005-05-19 07:00:59 51°13.53 2°56.226 4.9 226 12.1 101930 56
2005-05-19 07:01:03 51°13.531 2°56.223 3.1 269 12.1 101940 56
2005-05-19 07:01:09 51°13.534 2°56.217 1.2 308 12.1 101940 56
2005-05-19 07:01:15 51°13.538 2°56.209 2.6 284 12.1 101930 56
2005-05-19 07:01:19 51°13.541 2°56.202 3 247 12.1 101930 56
2005-05-19 07:01:23 51°13.543 2°56.194 3.4 295 12.1 101930 56
2005-05-19 07:01:29 51°13.546 2°56.182 4.1 255 12.1 101930 56
2005-05-19 07:01:33 51°13.548 2°56.173 4.2 264 12.1 101930 56
2005-05-19 07:01:39 51°13.552 2°56.158 3.9 295 12.1 101930 56
2005-05-19 07:01:43 51°13.555 2°56.147 3.5 314 12.1 101930 56
2005-05-19 07:01:49 51°13.558 2°56.131 3.7 290 12.1 101930 56
2005-05-19 07:01:54 51°13.561 2°56.119 4.4 266 12.1 101940 56
2005-05-19 07:01:59 51°13.564 2°56.105 6.3 279 12.1 101940 56
2005-05-19 07:02:03 51°13.567 2°56.093 4.8 299 12.1 101940 56
2005-05-19 07:02:09 51°13.571 2°56.078 3.4 245 12.1 101940 56
2005-05-19 07:02:13 51°13.574 2°56.068 3.4 253 12.1 101930 56
2005-05-19 07:02:19 51°13.578 2°56.052 4.7 296 12.1 101930 56
2005-05-19 07:02:24 51°13.582 2°56.04 4 230 12.1 101940 56
2005-05-19 07:02:29 51°13.585 2°56.028 3.8 243 12.1 101940 56
2005-05-19 07:02:33 51°13.589 2°56.019 3.3 287 12.1 101940 56
2005-05-19 07:02:39 51°13.593 2°56.005 1.8 270 12.1 101940 56
2005-05-19 07:02:44 51°13.598 2°55.992 4 274 12.1 101940 55
2005-05-19 07:02:49 51°13.601 2°55.982 4.7 265 12.1 101940 55
2005-05-19 07:02:54 51°13.605 2°55.971 4.6 265 12.1 101940 56
2005-05-19 07:02:59 51°13.61 2°55.959 4 264 12.1 101940 56
2005-05-19 07:03:04 51°13.614 2°55.948 3.9 277 12.2 101940 56
2005-05-19 07:03:09 51°13.618 2°55.937 3.1 287 12.2 101940 56
2005-05-19 07:03:14 51°13.622 2°55.927 2.5 284 12.2 101940 56
2005-05-19 07:03:19 51°13.626 2°55.917 3.4 299 12.2 101940 56
2005-05-19 07:03:24 51°13.631 2°55.905 3.8 257 12.2 101940 56
2005-05-19 07:03:29 51°13.636 2°55.895 2.9 258 12.2 101940 56
2005-05-19 07:03:34 51°13.641 2°55.884 2.1 284 12.2 101940 56
2005-05-19 07:03:39 51°13.647 2°55.873 3 268 12.2 101940 56
2005-05-19 07:03:44 51°13.652 2°55.863 2.5 247 12.2 101930 56
2005-05-19 07:03:49 51°13.658 2°55.852 4 251 12.2 101930 56
2005-05-19 07:03:54 51°13.664 2°55.84 3.2 269 12.2 101930 56
2005-05-19 07:03:59 51°13.67 2°55.829 2.5 211 12.2 101930 56
2005-05-19 07:04:03 51°13.675 2°55.819 3.1 236 12.2 101930 55
2005-05-19 07:04:09 51°13.682 2°55.806 2.5 250 12.2 101930 55
2005-05-19 07:04:14 51°13.688 2°55.793 2.8 282 12.2 101930 55
2005-05-19 07:04:19 51°13.694 2°55.78 3.8 306 12.2 101930 55
2005-05-19 07:04:24 51°13.701 2°55.767 5.5 272 12.2 101930 55
2005-05-19 07:04:29 51°13.708 2°55.754 3.8 275 12.2 101930 55
2005-05-19 07:04:34 51°13.714 2°55.743 5.5 275 12.2 101930 55
2005-05-19 07:04:39 51°13.722 2°55.73 4.3 240 12.2 101930 55
2005-05-19 07:04:43 51°13.729 2°55.72 4.4 230 12.3 101930 56
2005-05-19 07:04:49 51°13.738 2°55.707 2.4 223 12.3 101930 56
2005-05-19 07:04:53 51°13.746 2°55.699 3.6 182 12.3 101930 55
2005-05-19 07:04:59 51°13.757 2°55.687 2.9 258 12.3 101930 55
2005-05-19 07:05:03 51°13.765 2°55.679 2.3 258 12.3 101920 55
2005-05-19 07:05:08 51°13.775 2°55.669 3.8 265 12.3 101920 55
2005-05-19 07:05:14 51°13.786 2°55.659 3.8 242 12.3 101920 55
2005-05-19 07:05:19 51°13.796 2°55.65 3.2 240 12.3 101920 55
2005-05-19 07:05:23 51°13.806 2°55.643 3 225 12.3 101930 55
2005-05-19 07:05:29 51°13.817 2°55.633 2.7 252 12.3 101930 55
2005-05-19 07:05:33 51°13.827 2°55.626 3.1 248 12.3 101930 55
2005-05-19 07:05:39 51°13.839 2°55.617 2.4 260 12.3 101930 55
2005-05-19 07:05:44 51°13.85 2°55.61 2.6 214 12.3 101930 55
2005-05-19 07:05:49 51°13.862 2°55.602 4.8 220 12.3 101930 55
2005-05-19 07:05:53 51°13.872 2°55.596 4.8 227 12.3 101930 55
2005-05-19 07:05:59 51°13.885 2°55.588 3.6 207 12.3 101930 55
2005-05-19 07:06:04 51°13.897 2°55.58 3.3 194 12.3 101920 55
2005-05-19 07:06:09 51°13.909 2°55.572 2.6 247 12.3 101920 55
2005-05-19 07:06:13 51°13.919 2°55.566 1.8 269 12.3 101920 55
2005-05-19 07:06:18 51°13.932 2°55.557 1.5 221 12.3 101920 55
2005-05-19 07:06:24 51°13.947 2°55.548 1.5 222 12.3 101920 55
2005-05-19 07:06:29 51°13.958 2°55.541 1.9 239 12.3 101920 55
2005-05-19 07:06:34 51°13.97 2°55.532 1.6 248 12.3 101930 55
2005-05-19 07:06:38 51°13.981 2°55.525 1.7 236 12.3 101930 55
2005-05-19 07:06:43 51°13.993 2°55.517 2.7 191 12.3 101930 55
2005-05-19 07:06:49 51°14.006 2°55.508 2.1 204 12.3 101930 55
2005-05-19 07:06:53 51°14.016 2°55.501 1.2 188 12.3 101930 56
2005-05-19 07:06:59 51°14.03 2°55.491 2.8 198 12.3 101930 56
2005-05-19 07:07:03 51°14.041 2°55.484 2.6 208 12.3 101930 56
2005-05-19 07:07:09 51°14.054 2°55.475 2.6 207 12.3 101930 56
2005-05-19 07:07:13 51°14.065 2°55.469 2.2 199 12.4 101920 56
2005-05-19 07:07:19 51°14.08 2°55.458 2.3 215 12.4 101920 56
2005-05-19 07:07:24 51°14.09 2°55.45 2.7 206 12.4 101930 55
2005-05-19 07:07:29 51°14.102 2°55.441 2.1 242 12.4 101930 55
2005-05-19 07:07:33 51°14.113 2°55.433 2 230 12.4 101930 55
2005-05-19 07:07:39 51°14.129 2°55.422 1.6 208 12.4 101930 55
2005-05-19 07:07:44 51°14.142 2°55.413 2.2 219 12.4 101930 55
2005-05-19 07:07:50 51°14.156 2°55.401 1.5 235 12.4 101930 55
2005-05-19 07:07:53 51°14.166 2°55.393 0.9 252 12.4 101920 55
2005-05-19 07:07:59 51°14.182 2°55.38 2 267 12.4 101920 55
2005-05-19 07:08:04 51°14.194 2°55.369 1.3 264 12.4 101920 55
2005-05-19 07:08:09 51°14.207 2°55.357 1.7 222 12.4 101920 55
2005-05-19 07:08:13 51°14.217 2°55.346 1.7 260 12.4 101920 55
2005-05-19 07:08:19 51°14.233 2°55.327 2 278 12.5 101920 55
2005-05-19 07:08:23 51°14.243 2°55.314 3 286 12.4 101920 55
2005-05-19 07:08:29 51°14.255 2°55.295 3.5 303 12.4 101920 55
2005-05-19 07:08:34 51°14.266 2°55.277 4.6 303 12.4 101920 55
2005-05-19 07:08:39 51°14.276 2°55.257 5.2 277 12.5 101930 55
2005-05-19 07:08:43 51°14.286 2°55.24 4.3 267 12.5 101920 55
2005-05-19 07:08:49 51°14.297 2°55.218 3 321 12.5 101920 55
2005-05-19 07:08:53 51°14.305 2°55.202 4.6 304 12.5 101920 56
2005-05-19 07:08:59 51°14.317 2°55.177 8.3 315 12.5 101920 56
2005-05-19 07:09:03 51°14.326 2°55.158 5.3 283 12.5 101920 55
2005-05-19 07:09:09 51°14.337 2°55.134 3.7 308 12.5 101920 55
2005-05-19 07:09:13 51°14.346 2°55.115 4 287 12.5 101920 55
2005-05-19 07:09:19 51°14.357 2°55.091 3.5 318 12.5 101920 55
2005-05-19 07:09:24 51°14.367 2°55.07 2.7 231 12.5 101910 54
2005-05-19 07:09:29 51°14.378 2°55.051 5.2 347 12.5 101910 54
2005-05-19 07:09:34 51°14.391 2°55.033 4.9 327 12.5 101920 54
2005-05-19 07:09:39 51°14.404 2°55.016 4.7 312 12.5 101920 54
2005-05-19 07:09:43 51°14.417 2°55.001 4.1 319 12.5 101920 54
2005-05-19 07:09:49 51°14.432 2°54.981 3.9 326 12.5 101920 54
2005-05-19 07:09:54 51°14.445 2°54.962 4.5 42 12.5 101920 54
2005-05-19 07:09:59 51°14.459 2°54.943 5.4 295 12.5 101920 54
2005-05-19 07:10:03 51°14.471 2°54.926 4.9 302 12.5 101920 55
2005-05-19 07:10:09 51°14.486 2°54.904 4.7 290 12.5 101920 55
2005-05-19 07:10:13 51°14.498 2°54.886 4.2 294 12.5 101920 55
2005-05-19 07:10:19 51°14.514 2°54.862 4.2 310 12.5 101920 55
2005-05-19 07:10:23 51°14.524 2°54.845 4.5 304 12.5 101910 55
2005-05-19 07:10:29 51°14.538 2°54.822 7 287 12.5 101910 55
2005-05-19 07:10:34 51°14.55 2°54.801 6.1 282 12.5 101920 54
2005-05-19 07:10:39 51°14.563 2°54.78 7.5 275 12.5 101920 54
2005-05-19 07:10:44 51°14.575 2°54.758 7.7 273 12.5 101920 54
2005-05-19 07:10:49 51°14.587 2°54.735 6.1 305 12.5 101920 54
2005-05-19 07:10:54 51°14.598 2°54.712 7.7 279 12.5 101910 54
2005-05-19 07:10:59 51°14.611 2°54.687 7.1 298 12.5 101910 54
2005-05-19 07:11:03 51°14.62 2°54.669 7.3 288 12.5 101930 54
2005-05-19 07:11:09 51°14.633 2°54.644 10.2 274 12.5 101930 54
2005-05-19 07:11:14 51°14.644 2°54.62 8.5 272 12.5 101920 54
2005-05-19 07:11:19 51°14.656 2°54.598 6.8 284 12.5 101920 54
2005-05-19 07:11:23 51°14.666 2°54.577 5.9 288 12.5 101910 55
2005-05-19 07:11:29 51°14.679 2°54.552 7.5 291 12.5 101910 55
2005-05-19 07:11:34 51°14.691 2°54.528 7.7 298 12.5 101920 54
2005-05-19 07:11:39 51°14.701 2°54.505 8.5 288 12.5 101920 54
2005-05-19 07:11:43 51°14.712 2°54.484 9.4 289 12.5 101930 55
2005-05-19 07:11:49 51°14.723 2°54.458 7.8 288 12.5 101930 55
2005-05-19 07:11:53 51°14.731 2°54.438 9.4 274 12.5 101920 56
2005-05-19 07:11:59 51°14.744 2°54.409 8.3 286 12.5 101920 56
2005-05-19 07:12:03 51°14.752 2°54.387 7.9 283 12.5 101920 55
2005-05-19 07:12:09 51°14.764 2°54.36 7.6 289 12.5 101920 55
2005-05-19 07:12:13 51°14.773 2°54.338 7.6 276 12.5 101920 56
2005-05-19 07:12:19 51°14.784 2°54.312 6.7 302 12.5 101920 56
2005-05-19 07:12:23 51°14.793 2°54.29 7.5 294 12.5 101930 55
2005-05-19 07:12:29 51°14.804 2°54.262 8.5 293 12.5 101930 55
2005-05-19 07:12:34 51°14.813 2°54.237 8.1 288 12.5 101910 57
2005-05-19 07:12:39 51°14.822 2°54.209 9.7 289 12.5 101910 57
2005-05-19 07:12:44 51°14.83 2°54.186 9.4 282 12.5 101920 57
2005-05-19 07:12:49 51°14.838 2°54.16 8.4 287 12.5 101920 57
2005-05-19 07:12:53 51°14.845 2°54.137 9 285 12.5 101910 56
2005-05-19 07:12:59 51°14.854 2°54.109 8.5 296 12.5 101910 56
2005-05-19 07:13:03 51°14.861 2°54.085 7.9 294 12.5 101920 55
2005-05-19 07:13:09 51°14.87 2°54.057 7.7 281 12.5 101920 55
2005-05-19 07:13:14 51°14.878 2°54.03 8.3 294 12.5 101920 55
2005-05-19 07:13:19 51°14.886 2°54.005 7.6 294 12.5 101920 55
2005-05-19 07:13:23 51°14.893 2°53.981 8.9 294 12.5 101920 57
2005-05-19 07:13:29 51°14.902 2°53.953 7.5 296 12.5 101920 57
2005-05-19 07:13:33 51°14.91 2°53.93 8.3 298 12.5 101920 58
2005-05-19 07:13:39 51°14.919 2°53.901 7.6 297 12.5 101920 58
2005-05-19 07:13:43 51°14.926 2°53.878 9 296 12.4 101920 59
2005-05-19 07:13:49 51°14.935 2°53.849 7.4 296 12.4 101920 59
2005-05-19 07:13:52 51°14.94 2°53.831 7.5 299 12.4 101920 58
2005-05-19 07:13:59 51°14.952 2°53.795 8.8 290 12.4 101920 58
2005-05-19 07:14:03 51°14.958 2°53.774 8.8 290 12.4 101920 58
2005-05-19 07:14:08 51°14.967 2°53.748 9 291 12.4 101920 58
2005-05-19 07:14:13 51°14.974 2°53.724 8.1 293 12.5 101910 58
2005-05-19 07:14:19 51°14.985 2°53.693 8.9 301 12.5 101910 58
2005-05-19 07:14:23 51°14.992 2°53.67 8.2 301 12.5 101910 58
2005-05-19 07:14:28 51°15 2°53.644 8.8 296 12.5 101910 58
2005-05-19 07:14:33 51°15.009 2°53.618 9.5 291 12.4 101910 57
2005-05-19 07:14:39 51°15.018 2°53.59 10.3 290 12.4 101910 57
2005-05-19 07:14:43 51°15.025 2°53.566 9.4 284 12.4 101910 58
2005-05-19 07:14:49 51°15.033 2°53.537 9.6 293 12.4 101910 58
2005-05-19 07:14:54 51°15.042 2°53.508 9.1 290 12.4 101910 57
2005-05-19 07:14:59 51°15.048 2°53.484 10 296 12.4 101910 57
2005-05-19 07:15:03 51°15.055 2°53.46 8.5 299 12.4 101920 56
2005-05-19 07:15:09 51°15.062 2°53.43 9.3 297 12.4 101920 56
2005-05-19 07:15:14 51°15.069 2°53.404 9.4 293 12.4 101920 56
2005-05-19 07:15:19 51°15.076 2°53.374 10.2 294 12.4 101920 57
2005-05-19 07:15:23 51°15.081 2°53.352 10 302 12.4 101910 59
2005-05-19 07:15:29 51°15.087 2°53.323 10.7 297 12.4 101910 59
2005-05-19 07:15:34 51°15.093 2°53.295 10 298 12.4 101910 59
2005-05-19 07:15:39 51°15.1 2°53.265 9 303 12.4 101910 58
2005-05-19 07:15:44 51°15.105 2°53.241 8.7 303 12.4 101920 59
2005-05-19 07:15:49 51°15.111 2°53.213 9.1 311 12.4 101920 59
2005-05-19 07:15:54 51°15.117 2°53.186 9.2 306 12.4 101910 59
2005-05-19 07:15:59 51°15.123 2°53.159 9.4 299 12.4 101910 59
2005-05-19 07:16:04 51°15.129 2°53.129 9.2 297 12.4 101910 60
2005-05-19 07:16:09 51°15.135 2°53.104 10 304 12.4 101910 60
2005-05-19 07:16:14 51°15.141 2°53.077 8.9 307 12.4 101910 60
2005-05-19 07:16:19 51°15.147 2°53.049 9.7 305 12.4 101910 60
2005-05-19 07:16:24 51°15.153 2°53.022 9.5 301 12.4 101910 60
2005-05-19 07:16:29 51°15.159 2°52.995 8.7 302 12.4 101910 59
2005-05-19 07:16:33 51°15.164 2°52.971 8.2 300 12.4 101910 59
2005-05-19 07:16:39 51°15.171 2°52.94 11.3 300 12.4 101910 59
2005-05-19 07:16:43 51°15.176 2°52.916 10.7 305 12.4 101910 59
2005-05-19 07:16:49 51°15.182 2°52.886 11.1 308 12.4 101910 59
2005-05-19 07:16:54 51°15.187 2°52.855 11.2 307 12.4 101910 59
2005-05-19 07:16:59 51°15.192 2°52.828 11.5 303 12.4 101910 59
2005-05-19 07:17:03 51°15.196 2°52.806 10.7 309 12.4 101910 60
2005-05-19 07:17:09 51°15.202 2°52.775 11.2 306 12.4 101910 60
2005-05-19 07:17:13 51°15.206 2°52.753 10.9 307 12.4 101910 59
2005-05-19 07:17:19 51°15.212 2°52.72 11.4 301 12.4 101910 59
2005-05-19 07:17:23 51°15.216 2°52.695 10.5 298 12.4 101910 59
2005-05-19 07:17:29 51°15.221 2°52.664 10.9 301 12.4 101910 59
2005-05-19 07:17:34 51°15.225 2°52.637 10.1 310 12.4 101910 59
2005-05-19 07:17:39 51°15.231 2°52.606 8.9 310 12.4 101910 59
2005-05-19 07:17:43 51°15.234 2°52.584 10.4 308 12.4 101910 58
2005-05-19 07:17:48 51°15.239 2°52.557 9 300 12.4 101910 58
2005-05-19 07:17:53 51°15.244 2°52.529 10.7 313 12.4 101910 59
2005-05-19 07:17:59 51°15.25 2°52.496 10.7 300 12.4 101910 59
2005-05-19 07:18:04 51°15.255 2°52.471 10.5 302 12.4 101910 60
2005-05-19 07:18:09 51°15.26 2°52.443 9.6 298 12.4 101910 60
2005-05-19 07:18:14 51°15.264 2°52.416 9.6 305 12.4 101910 60
2005-05-19 07:18:19 51°15.269 2°52.388 11.1 305 12.4 101910 60
2005-05-19 07:18:23 51°15.273 2°52.363 11.9 305 12.4 101900 58
2005-05-19 07:18:29 51°15.279 2°52.333 10.5 298 12.4 101900 58
2005-05-19 07:18:33 51°15.282 2°52.311 8.9 309 12.4 101900 59
2005-05-19 07:18:39 51°15.288 2°52.278 9.6 305 12.4 101900 59
2005-05-19 07:18:43 51°15.292 2°52.254 9.7 302 12.4 101900 59
2005-05-19 07:18:49 51°15.297 2°52.223 10.1 304 12.4 101900 59
2005-05-19 07:18:54 51°15.301 2°52.195 9.2 307 12.4 101900 59
2005-05-19 07:18:59 51°15.305 2°52.167 9.3 310 12.4 101900 59
2005-05-19 07:19:03 51°15.309 2°52.142 9.8 315 12.4 101910 60
2005-05-19 07:19:09 51°15.313 2°52.112 9.8 315 12.4 101910 60
2005-05-19 07:19:13 51°15.316 2°52.089 10.6 307 12.5 101910 60
2005-05-19 07:19:19 51°15.32 2°52.054 9.6 313 12.5 101910 60
2005-05-19 07:19:23 51°15.323 2°52.031 11.2 311 12.4 101910 60
2005-05-19 07:19:28 51°15.326 2°52.003 12.3 313 12.4 101910 60
2005-05-19 07:19:33 51°15.329 2°51.978 10.5 307 12.4 101900 60
2005-05-19 07:19:39 51°15.333 2°51.942 10.9 311 12.4 101900 60
2005-05-19 07:19:43 51°15.336 2°51.919 9.9 313 12.4 101910 61
2005-05-19 07:19:49 51°15.339 2°51.888 10.9 308 12.4 101910 61
2005-05-19 07:19:53 51°15.342 2°51.863 9.9 305 12.3 101890 60
2005-05-19 07:19:59 51°15.346 2°51.833 9.5 -999 12.3 101890 60
2005-05-19 07:20:04 51°15.349 2°51.804 9.3 311 12.4 101900 60
2005-05-19 07:20:09 51°15.353 2°51.776 10.2 39 12.4 101900 60
2005-05-19 07:20:13 51°15.355 2°51.751 9.9 309 12.3 101900 60
2005-05-19 07:20:19 51°15.36 2°51.721 11.5 303 12.3 101900 60
2005-05-19 07:20:24 51°15.363 2°51.693 10.1 304 12.3 101910 61
2005-05-19 07:20:28 51°15.366 2°51.668 10 314 12.3 101910 61
2005-05-19 07:20:33 51°15.369 2°51.64 10.5 309 12.3 101900 60
2005-05-19 07:20:39 51°15.373 2°51.609 10.3 314 12.3 101900 60
2005-05-19 07:20:44 51°15.376 2°51.582 11.7 304 12.3 101890 59
2005-05-19 07:20:48 51°15.379 2°51.557 11.2 305 12.3 101890 59
2005-05-19 07:20:53 51°15.381 2°51.531 10.9 302 12.3 101900 61
2005-05-19 07:20:59 51°15.382 2°51.498 12.1 314 12.3 101900 61
2005-05-19 07:21:03 51°15.382 2°51.473 12 229 12.4 101900 61
2005-05-19 07:21:09 51°15.382 2°51.442 11.8 318 12.4 101900 61
2005-05-19 07:21:13 51°15.381 2°51.419 12 234 12.3 101900 61
2005-05-19 07:21:19 51°15.38 2°51.383 11.1 313 12.3 101900 61
2005-05-19 07:21:23 51°15.379 2°51.36 11.6 315 12.3 101890 60
2005-05-19 07:21:27 51°15.379 2°51.338 11.5 314 12.3 101890 60
2005-05-19 07:21:34 51°15.377 2°51.302 12.3 313 12.3 101890 61
2005-05-19 07:21:39 51°15.376 2°51.274 11.4 314 12.3 101890 61
2005-05-19 07:21:43 51°15.375 2°51.249 10.9 311 12.3 101880 61
2005-05-19 07:21:49 51°15.375 2°51.218 11.4 313 12.3 101880 61
2005-05-19 07:21:53 51°15.374 2°51.196 12 42 12.3 101880 61
2005-05-19 07:21:59 51°15.374 2°51.162 10.9 315 12.3 101880 61
2005-05-19 07:22:03 51°15.374 2°51.136 12 313 12.3 101890 61
2005-05-19 07:22:09 51°15.374 2°51.105 13.8 315 12.3 101890 61
2005-05-19 07:22:13 51°15.373 2°51.08 14 311 12.3 101890 61
2005-05-19 07:22:19 51°15.373 2°51.049 12 308 12.3 101890 61
2005-05-19 07:22:24 51°15.373 2°51.021 13.7 305 12.3 101890 61
2005-05-19 07:22:29 51°15.373 2°50.993 11.9 310 12.3 101890 61
2005-05-19 07:22:34 51°15.373 2°50.965 10.6 314 12.3 101890 59
2005-05-19 07:22:39 51°15.373 2°50.934 11.6 312 12.3 101890 59
2005-05-19 07:22:44 51°15.373 2°50.908 12.7 312 12.3 101880 59
2005-05-19 07:22:49 51°15.373 2°50.88 10.7 308 12.3 101880 59
2005-05-19 07:22:53 51°15.373 2°50.858 11.8 312 12.3 101880 60
2005-05-19 07:22:59 51°15.374 2°50.824 13 310 12.3 101880 60
2005-05-19 07:23:03 51°15.374 2°50.799 12.5 310 12.3 101880 61
2005-05-19 07:23:08 51°15.374 2°50.771 13.2 309 12.3 101880 61
2005-05-19 07:23:14 51°15.375 2°50.737 12.4 307 12.3 101880 60
2005-05-19 07:23:19 51°15.374 2°50.712 11.3 313 12.3 101880 60
2005-05-19 07:23:24 51°15.375 2°50.683 11.5 316 12.3 101880 60
2005-05-19 07:23:29 51°15.375 2°50.653 11.9 315 12.3 101880 60
2005-05-19 07:23:33 51°15.375 2°50.63 12.6 313 12.3 101880 61
2005-05-19 07:23:39 51°15.375 2°50.596 11.2 316 12.3 101880 61
2005-05-19 07:23:43 51°15.375 2°50.574 13.1 42 12.3 101880 62
2005-05-19 07:23:48 51°15.375 2°50.549 13.6 311 12.3 101880 62
2005-05-19 07:23:53 51°15.374 2°50.521 13.6 230 12.3 101880 62
2005-05-19 07:23:59 51°15.374 2°50.487 14.7 311 12.3 101880 62
2005-05-19 07:24:04 51°15.374 2°50.459 14.2 314 12.3 101880 61
2005-05-19 07:24:09 51°15.373 2°50.432 13.4 309 12.3 101880 61
2005-05-19 07:24:14 51°15.373 2°50.404 11.9 303 12.3 101870 60
2005-05-19 07:24:19 51°15.372 2°50.373 12.9 308 12.3 101870 60
2005-05-19 07:24:23 51°15.372 2°50.351 10.6 313 12.3 101870 60
2005-05-19 07:24:29 51°15.371 2°50.32 12.1 314 12.3 101870 60
2005-05-19 07:24:33 51°15.37 2°50.295 12.8 314 12.3 101870 59
2005-05-19 07:24:39 51°15.37 2°50.262 12.1 316 12.3 101870 59
2005-05-19 07:24:44 51°15.37 2°50.237 11.7 315 12.3 101870 61
2005-05-19 07:24:49 51°15.369 2°50.209 13.2 313 12.3 101870 61
2005-05-19 07:24:54 51°15.369 2°50.181 12.3 230 12.3 101880 61
2005-05-19 07:24:59 51°15.369 2°50.153 14.7 321 12.3 101880 61
2005-05-19 07:25:03 51°15.368 2°50.128 12.2 306 12.3 101880 62
2005-05-19 07:25:09 51°15.368 2°50.097 14.8 310 12.3 101880 62
2005-05-19 07:25:14 51°15.367 2°50.07 13.8 305 12.3 101870 61
2005-05-19 07:25:19 51°15.367 2°50.039 11.4 309 12.3 101870 61
2005-05-19 07:25:23 51°15.367 2°50.017 12.8 315 12.3 101870 61
2005-05-19 07:25:29 51°15.367 2°49.986 11.4 228 12.3 101870 61
2005-05-19 07:25:34 51°15.366 2°49.956 13.1 307 12.3 101860 59
2005-05-19 07:25:39 51°15.366 2°49.928 11.3 311 12.3 101860 59
2005-05-19 07:25:43 51°15.365 2°49.906 10.2 42 12.3 101870 60
2005-05-19 07:25:49 51°15.365 2°49.875 10.8 315 12.3 101870 60
2005-05-19 07:25:54 51°15.365 2°49.848 11.8 313 12.3 101880 61
2005-05-19 07:25:59 51°15.365 2°49.82 11.8 314 12.3 101880 61
2005-05-19 07:26:03 51°15.364 2°49.795 11.5 313 12.3 101880 61
2005-05-19 07:26:08 51°15.364 2°49.77 12 310 12.3 101880 61
2005-05-19 07:26:14 51°15.363 2°49.734 12.2 308 12.3 101880 61
2005-05-19 07:26:19 51°15.363 2°49.709 11.4 39 12.3 101880 61
2005-05-19 07:26:24 51°15.363 2°49.681 10.8 40 12.3 101880 62
2005-05-19 07:26:29 51°15.363 2°49.653 12.6 316 12.3 101880 62
2005-05-19 07:26:33 51°15.362 2°49.628 11.7 315 12.3 101880 61
2005-05-19 07:26:39 51°15.362 2°49.598 14 313 12.3 101880 61
2005-05-19 07:26:43 51°15.362 2°49.573 13.7 43 12.3 101880 63
2005-05-19 07:26:49 51°15.361 2°49.542 13.7 310 12.3 101880 63
2005-05-19 07:26:53 51°15.361 2°49.52 12.1 317 12.3 101880 61
2005-05-19 07:26:59 51°15.36 2°49.484 11.6 -999 12.3 101880 61
2005-05-19 07:27:04 51°15.36 2°49.459 12.9 313 12.3 101880 59
2005-05-19 07:27:09 51°15.359 2°49.432 11.4 41 12.3 101880 59
2005-05-19 07:27:13 51°15.359 2°49.41 12.3 42 12.3 101860 60
2005-05-19 07:27:19 51°15.358 2°49.374 12.2 313 12.3 101860 60
2005-05-19 07:27:23 51°15.357 2°49.351 11.6 317 12.3 101870 60
2005-05-19 07:27:29 51°15.356 2°49.321 13.1 315 12.3 101870 60
2005-05-19 07:27:33 51°15.356 2°49.296 13 311 12.3 101880 61
2005-05-19 07:27:39 51°15.355 2°49.265 14.2 311 12.3 101880 61
2005-05-19 07:27:44 51°15.355 2°49.235 13.1 314 12.4 101870 62
2005-05-19 07:27:49 51°15.354 2°49.21 13.8 229 12.4 101870 62
2005-05-19 07:27:54 51°15.354 2°49.182 13.7 314 12.3 101870 61
2005-05-19 07:27:57 51°15.353 2°49.165 13.6 311 12.3 101870 61
2005-05-19 07:28:04 51°15.352 2°49.124 14.1 307 12.3 101870 59
2005-05-19 07:28:09 51°15.352 2°49.096 12.8 316 12.3 101870 59
2005-05-19 07:28:14 51°15.351 2°49.071 14.1 317 12.3 101870 61
2005-05-19 07:28:19 51°15.35 2°49.044 14.5 42 12.3 101870 61
2005-05-19 07:28:23 51°15.35 2°49.018 12 312 12.3 101860 60
2005-05-19 07:28:29 51°15.35 2°48.988 13 309 12.3 101860 60
2005-05-19 07:28:33 51°15.35 2°48.966 12.8 306 12.3 101880 60
2005-05-19 07:28:39 51°15.349 2°48.93 11.8 42 12.3 101880 60
2005-05-19 07:28:43 51°15.348 2°48.907 12.7 231 12.3 101870 58
2005-05-19 07:28:49 51°15.348 2°48.877 12.1 230 12.3 101870 58
2005-05-19 07:28:54 51°15.347 2°48.849 12.4 229 12.4 101870 60
2005-05-19 07:28:59 51°15.347 2°48.821 14.5 313 12.4 101870 60
2005-05-19 07:29:03 51°15.346 2°48.797 12.4 228 12.4 101880 61
2005-05-19 07:29:09 51°15.345 2°48.764 12.2 41 12.4 101880 61
2005-05-19 07:29:14 51°15.345 2°48.739 13.2 318 12.4 101880 61
2005-05-19 07:29:19 51°15.344 2°48.708 12.8 231 12.4 101880 61
2005-05-19 07:29:24 51°15.343 2°48.683 11.9 317 12.4 101870 60
2005-05-19 07:29:27 51°15.343 2°48.664 12 228 12.4 101870 60
2005-05-19 07:29:33 51°15.342 2°48.631 12.9 227 12.4 101870 61
2005-05-19 07:29:39 51°15.342 2°48.6 12.1 315 12.4 101870 61
2005-05-19 07:29:43 51°15.342 2°48.575 13.6 228 12.4 101880 61
2005-05-19 07:29:49 51°15.341 2°48.545 13.4 229 12.4 101880 61
2005-05-19 07:29:53 51°15.341 2°48.52 12.2 228 12.4 101880 61
2005-05-19 07:29:59 51°15.34 2°48.49 13.8 313 12.4 101880 61
2005-05-19 07:30:04 51°15.34 2°48.462 12.4 229 12.3 101870 61
2005-05-19 07:30:09 51°15.34 2°48.434 13.1 311 12.3 101870 61
2005-05-19 07:30:13 51°15.339 2°48.41 14.4 305 12.3 101860 59
2005-05-19 07:30:19 51°15.339 2°48.379 13.1 308 12.3 101860 59
2005-05-19 07:30:23 51°15.338 2°48.354 11.3 305 12.3 101870 61
2005-05-19 07:30:29 51°15.338 2°48.324 12.8 314 12.3 101870 61
2005-05-19 07:30:34 51°15.337 2°48.296 14.2 309 12.3 101870 60
2005-05-19 07:30:39 51°15.337 2°48.269 12.4 314 12.3 101870 60
2005-05-19 07:30:43 51°15.336 2°48.244 11.4 43 12.3 101860 61
2005-05-19 07:30:49 51°15.336 2°48.213 12.1 43 12.3 101860 61
2005-05-19 07:30:54 51°15.335 2°48.185 11.6 227 12.3 101880 60
2005-05-19 07:30:59 51°15.335 2°48.158 12.3 314 12.3 101880 60
2005-05-19 07:31:04 51°15.334 2°48.13 11.6 312 12.3 101870 61
2005-05-19 07:31:09 51°15.334 2°48.102 12 230 12.3 101870 61
2005-05-19 07:31:13 51°15.333 2°48.08 12.2 42 12.3 101870 61
2005-05-19 07:31:19 51°15.333 2°48.047 12.5 316 12.3 101870 61
2005-05-19 07:31:24 51°15.332 2°48.019 13.5 312 12.3 101870 62
2005-05-19 07:31:29 51°15.332 2°47.992 13.5 306 12.3 101870 62
2005-05-19 07:31:33 51°15.331 2°47.969 13.9 308 12.4 101870 62
2005-05-19 07:31:39 51°15.331 2°47.936 13.6 313 12.4 101870 62
2005-05-19 07:31:43 51°15.331 2°47.911 12.8 310 12.3 101870 61
2005-05-19 07:31:49 51°15.33 2°47.88 12.8 229 12.3 101870 61
2005-05-19 07:31:54 51°15.33 2°47.853 13.3 313 12.3 101870 61
2005-05-19 07:31:59 51°15.329 2°47.825 12.8 309 12.3 101870 61
2005-05-19 07:32:03 51°15.328 2°47.8 14.2 309 12.3 101880 60
2005-05-19 07:32:09 51°15.328 2°47.77 14.1 307 12.3 101880 60
2005-05-19 07:32:13 51°15.328 2°47.745 12.7 311 12.3 101880 61
2005-05-19 07:32:19 51°15.327 2°47.712 12.8 310 12.3 101880 61
2005-05-19 07:32:23 51°15.327 2°47.69 13.4 308 12.3 101860 61
2005-05-19 07:32:29 51°15.326 2°47.659 13.4 311 12.3 101860 61
2005-05-19 07:32:34 51°15.326 2°47.631 13.3 309 12.3 101860 62
2005-05-19 07:32:39 51°15.326 2°47.604 12.7 41 12.3 101860 62
2005-05-19 07:32:43 51°15.325 2°47.579 12.5 41 12.4 101860 62
2005-05-19 07:32:49 51°15.325 2°47.548 14.2 229 12.4 101860 62
2005-05-19 07:32:54 51°15.324 2°47.52 11.9 314 12.3 101870 61
2005-05-19 07:32:59 51°15.324 2°47.493 13.4 228 12.3 101870 61
2005-05-19 07:33:03 51°15.324 2°47.468 12.3 316 12.4 101870 62
2005-05-19 07:33:09 51°15.323 2°47.438 13 227 12.4 101870 62
2005-05-19 07:33:13 51°15.323 2°47.412 12.5 227 12.3 101870 61
2005-05-19 07:33:19 51°15.322 2°47.382 12.5 316 12.3 101870 61
2005-05-19 07:33:24 51°15.322 2°47.354 12 314 12.3 101870 61
2005-05-19 07:33:28 51°15.321 2°47.33 12 315 12.3 101870 61
2005-05-19 07:33:34 51°15.321 2°47.299 11.9 318 12.3 101880 61
2005-05-19 07:33:39 51°15.32 2°47.268 12.5 229 12.3 101880 61
2005-05-19 07:33:44 51°15.32 2°47.243 13.1 313 12.3 101870 62
2005-05-19 07:33:49 51°15.32 2°47.216 11.5 39 12.3 101870 62
2005-05-19 07:33:53 51°15.32 2°47.191 13 228 12.4 101870 63
2005-05-19 07:33:59 51°15.319 2°47.16 11 -999 12.4 101870 63
2005-05-19 07:34:03 51°15.319 2°47.135 11.7 311 12.3 101870 63
2005-05-19 07:34:09 51°15.318 2°47.105 10.8 229 12.3 101870 63
2005-05-19 07:34:14 51°15.318 2°47.077 10.7 228 12.3 101880 62
2005-05-19 07:34:19 51°15.318 2°47.05 12 228 12.3 101880 62
2005-05-19 07:34:23 51°15.317 2°47.025 12.5 321 12.3 101880 62
2005-05-19 07:34:29 51°15.317 2°46.994 14.3 313 12.3 101880 62
2005-05-19 07:34:34 51°15.316 2°46.967 14.7 312 12.3 101870 63
2005-05-19 07:34:39 51°15.316 2°46.939 13.9 312 12.3 101870 63
2005-05-19 07:34:44 51°15.316 2°46.911 13.4 316 12.3 101880 63
2005-05-19 07:34:49 51°15.315 2°46.884 13.6 312 12.3 101880 63
2005-05-19 07:34:54 51°15.315 2°46.856 12.6 230 12.3 101870 60
2005-05-19 07:34:59 51°15.314 2°46.826 13.9 230 12.3 101870 60
2005-05-19 07:35:03 51°15.314 2°46.804 13.1 314 12.3 101870 61
2005-05-19 07:35:09 51°15.314 2°46.773 13.4 316 12.3 101870 61
2005-05-19 07:35:14 51°15.313 2°46.746 12.8 311 12.3 101870 61
2005-05-19 07:35:19 51°15.313 2°46.719 12.6 319 12.3 101870 61
2005-05-19 07:35:23 51°15.312 2°46.694 13.9 313 12.3 101870 61
2005-05-19 07:35:28 51°15.312 2°46.666 12.5 314 12.3 101870 61
2005-05-19 07:35:33 51°15.312 2°46.641 12.1 233 12.3 101870 62
2005-05-19 07:35:39 51°15.312 2°46.608 12.1 311 12.3 101870 62
2005-05-19 07:35:43 51°15.311 2°46.583 12 310 12.3 101880 62
2005-05-19 07:35:49 51°15.311 2°46.553 13.4 230 12.3 101880 62
2005-05-19 07:35:53 51°15.311 2°46.531 12.1 313 12.3 101870 61
2005-05-19 07:35:59 51°15.311 2°46.495 12.8 317 12.3 101870 61
2005-05-19 07:36:03 51°15.311 2°46.473 12.9 314 12.3 101880 62
2005-05-19 07:36:09 51°15.311 2°46.443 12.1 314 12.3 101880 62
2005-05-19 07:36:13 51°15.31 2°46.418 12.7 316 12.3 101870 62
2005-05-19 07:36:19 51°15.31 2°46.388 11.7 317 12.3 101870 62
2005-05-19 07:36:23 51°15.309 2°46.363 12.1 43 12.3 101880 62
2005-05-19 07:36:29 51°15.309 2°46.332 12.3 231 12.3 101880 62
2005-05-19 07:36:34 51°15.309 2°46.305 11.6 44 12.3 101870 63
2005-05-19 07:36:39 51°15.309 2°46.277 13.6 314 12.3 101870 63
2005-05-19 07:36:44 51°15.309 2°46.25 13.1 313 12.3 101880 63
2005-05-19 07:36:49 51°15.309 2°46.222 12.2 320 12.3 101880 63
2005-05-19 07:36:54 51°15.308 2°46.195 12.4 315 12.3 101870 62
2005-05-19 07:36:59 51°15.308 2°46.167 12.9 229 12.3 101870 62
2005-05-19 07:37:03 51°15.308 2°46.142 13.6 228 12.3 101870 62
2005-05-19 07:37:09 51°15.308 2°46.109 12.6 314 12.3 101870 62
2005-05-19 07:37:14 51°15.308 2°46.084 13.4 313 12.3 101880 62
2005-05-19 07:37:19 51°15.308 2°46.056 12.9 314 12.3 101880 62
2005-05-19 07:37:23 51°15.308 2°46.032 12.5 228 12.3 101880 62
2005-05-19 07:37:29 51°15.307 2°46.001 10.7 317 12.3 101880 62
2005-05-19 07:37:34 51°15.307 2°45.974 13.1 319 12.3 101870 61
2005-05-19 07:37:39 51°15.307 2°45.943 13 315 12.3 101870 61
2005-05-19 07:37:43 51°15.307 2°45.921 13.2 228 12.3 101870 61
2005-05-19 07:37:48 51°15.306 2°45.894 14.1 42 12.3 101870 61
2005-05-19 07:37:53 51°15.307 2°45.866 14.3 316 12.3 101880 62
2005-05-19 07:37:59 51°15.306 2°45.835 12.3 322 12.3 101880 62
2005-05-19 07:38:03 51°15.306 2°45.811 13.1 41 12.3 101880 62
2005-05-19 07:38:09 51°15.306 2°45.78 12.6 316 12.3 101880 62
2005-05-19 07:38:14 51°15.305 2°45.753 13.2 318 12.3 101860 61
2005-05-19 07:38:19 51°15.305 2°45.722 12.1 228 12.3 101860 61
2005-05-19 07:38:23 51°15.305 2°45.7 12.8 41 12.3 101870 62
2005-05-19 07:38:29 51°15.304 2°45.67 13.5 228 12.3 101870 62
2005-05-19 07:38:33 51°15.303 2°45.648 14.5 319 12.3 101870 63
2005-05-19 07:38:39 51°15.3 2°45.617 13.4 320 12.3 101870 63
2005-05-19 07:38:43 51°15.295 2°45.594 14 331 12.3 101870 62
2005-05-19 07:38:49 51°15.288 2°45.568 13.9 332 12.3 101870 62
2005-05-19 07:38:54 51°15.28 2°45.545 13.7 331 12.3 101870 61
2005-05-19 07:38:59 51°15.273 2°45.522 12.4 329 12.3 101870 61
2005-05-19 07:39:03 51°15.266 2°45.501 12.5 330 12.3 101870 62
2005-05-19 07:39:09 51°15.258 2°45.475 14 330 12.3 101870 62
2005-05-19 07:39:13 51°15.252 2°45.455 13.7 330 12.3 101870 62
2005-05-19 07:39:19 51°15.244 2°45.426 13.2 331 12.3 101870 62
2005-05-19 07:39:24 51°15.237 2°45.402 14 328 12.3 101870 63
2005-05-19 07:39:29 51°15.231 2°45.377 14.7 323 12.3 101870 63
2005-05-19 07:39:33 51°15.228 2°45.353 13.7 322 12.3 101870 63
2005-05-19 07:39:39 51°15.225 2°45.324 12.9 321 12.3 101870 63
2005-05-19 07:39:43 51°15.224 2°45.3 13.3 37 12.3 101860 62
2005-05-19 07:39:48 51°15.222 2°45.273 12 321 12.3 101860 62
2005-05-19 07:39:53 51°15.222 2°45.249 12.9 43 12.3 101860 61
2005-05-19 07:39:59 51°15.222 2°45.214 13.5 227 12.3 101860 61
2005-05-19 07:40:03 51°15.222 2°45.192 12.6 313 12.3 101860 62
2005-05-19 07:40:09 51°15.222 2°45.162 12.7 316 12.3 101860 62
2005-05-19 07:40:13 51°15.223 2°45.137 11.6 228 12.3 101870 62
2005-05-19 07:40:19 51°15.224 2°45.105 11.5 319 12.3 101870 62
2005-05-19 07:40:23 51°15.225 2°45.083 12.1 316 12.3 101870 62
2005-05-19 07:40:29 51°15.225 2°45.052 11.9 310 12.3 101870 62
2005-05-19 07:40:34 51°15.226 2°45.025 12.2 317 12.3 101870 62
2005-05-19 07:40:39 51°15.227 2°44.995 11.4 315 12.3 101870 62
2005-05-19 07:40:44 51°15.228 2°44.97 12 317 12.3 101870 62
2005-05-19 07:40:48 51°15.228 2°44.946 11.8 42 12.3 101870 62
2005-05-19 07:40:53 51°15.228 2°44.921 12.7 311 12.3 101870 63
2005-05-19 07:40:59 51°15.228 2°44.888 11.8 317 12.3 101870 63
2005-05-19 07:41:03 51°15.228 2°44.863 11.6 228 12.3 101870 63
2005-05-19 07:41:09 51°15.229 2°44.833 12.7 319 12.3 101870 63
2005-05-19 07:41:14 51°15.229 2°44.805 12.5 42 12.3 101870 63
2005-05-19 07:41:19 51°15.229 2°44.778 12 317 12.3 101870 63
2005-05-19 07:41:23 51°15.23 2°44.753 12 319 12.3 101870 62
2005-05-19 07:41:29 51°15.23 2°44.723 12.4 320 12.3 101870 62
2005-05-19 07:41:33 51°15.23 2°44.701 12.1 315 12.3 101870 62
2005-05-19 07:41:39 51°15.231 2°44.668 12.5 227 12.3 101870 62
2005-05-19 07:41:43 51°15.232 2°44.643 12.6 317 12.4 101870 62
2005-05-19 07:41:49 51°15.233 2°44.612 12.5 313 12.4 101870 62
2005-05-19 07:41:54 51°15.234 2°44.584 14.2 229 12.3 101880 62
2005-05-19 07:41:59 51°15.235 2°44.557 13 313 12.3 101880 62
2005-05-19 07:42:03 51°15.237 2°44.532 11.7 316 12.4 101880 62
2005-05-19 07:42:09 51°15.238 2°44.501 11.3 313 12.4 101880 62
2005-05-19 07:42:14 51°15.24 2°44.474 12.1 42 12.4 101870 61
2005-05-19 07:42:19 51°15.241 2°44.443 10.9 228 12.4 101870 61
2005-05-19 07:42:23 51°15.243 2°44.421 11.4 313 12.4 101870 62
2005-05-19 07:42:29 51°15.245 2°44.39 12.1 311 12.4 101870 62
2005-05-19 07:42:34 51°15.247 2°44.363 11.3 316 12.5 101870 62
2005-05-19 07:42:39 51°15.249 2°44.332 11.7 314 12.5 101870 62
2005-05-19 07:42:43 51°15.251 2°44.31 11.8 226 12.4 101870 62
2005-05-19 07:42:49 51°15.253 2°44.28 13.1 314 12.4 101870 62
2005-05-19 07:42:53 51°15.255 2°44.258 12.8 314 12.4 101880 62
2005-05-19 07:42:59 51°15.257 2°44.224 12.2 -999 12.4 101880 62
2005-05-19 07:43:03 51°15.259 2°44.2 11.5 229 12.4 101880 63
2005-05-19 07:43:09 51°15.261 2°44.169 12.2 315 12.4 101880 63
2005-05-19 07:43:14 51°15.264 2°44.142 12.3 311 12.4 101870 62
2005-05-19 07:43:19 51°15.266 2°44.112 11.2 316 12.4 101870 62
2005-05-19 07:43:24 51°15.268 2°44.087 12.1 315 12.4 101870 62
2005-05-19 07:43:29 51°15.27 2°44.06 11.8 316 12.4 101870 62
2005-05-19 07:43:34 51°15.273 2°44.032 12 40 12.4 101870 62
2005-05-19 07:43:39 51°15.275 2°44.004 12.1 44 12.4 101870 62
2005-05-19 07:43:43 51°15.277 2°43.98 12.2 228 12.4 101880 63
2005-05-19 07:43:49 51°15.28 2°43.95 11.4 43 12.4 101880 63
2005-05-19 07:43:53 51°15.282 2°43.927 12 43 12.5 101880 63
2005-05-19 07:43:59 51°15.285 2°43.895 12.1 315 12.5 101880 63
2005-05-19 07:44:03 51°15.288 2°43.87 11.1 228 12.5 101870 63
2005-05-19 07:44:08 51°15.291 2°43.842 11.3 310 12.5 101870 63
2005-05-19 07:44:13 51°15.294 2°43.815 10.7 311 12.5 101870 63
2005-05-19 07:44:19 51°15.297 2°43.782 11.4 42 12.5 101870 63
2005-05-19 07:44:24 51°15.3 2°43.757 12.6 312 12.5 101870 63
2005-05-19 07:44:29 51°15.303 2°43.729 11.4 312 12.5 101870 63
2005-05-19 07:44:34 51°15.306 2°43.702 10.9 309 12.5 101870 63
2005-05-19 07:44:39 51°15.31 2°43.672 10.3 313 12.5 101870 63
2005-05-19 07:44:44 51°15.312 2°43.647 11.4 313 12.5 101880 62
2005-05-19 07:44:49 51°15.315 2°43.62 11.4 318 12.5 101880 62
2005-05-19 07:44:54 51°15.318 2°43.592 12.4 313 12.5 101880 62
2005-05-19 07:44:59 51°15.321 2°43.565 11.8 315 12.5 101880 62
2005-05-19 07:45:03 51°15.323 2°43.54 12 312 12.5 101880 62
2005-05-19 07:45:09 51°15.326 2°43.509 12.1 314 12.5 101880 62
2005-05-19 07:45:13 51°15.327 2°43.487 11.9 314 12.5 101880 62
2005-05-19 07:45:19 51°15.33 2°43.451 10.6 228 12.5 101880 62
2005-05-19 07:45:23 51°15.332 2°43.429 10.7 314 12.5 101880 63
2005-05-19 07:45:29 51°15.334 2°43.399 13 314 12.5 101880 63
2005-05-19 07:45:33 51°15.336 2°43.377 13.1 315 12.5 101880 63
2005-05-19 07:45:39 51°15.338 2°43.343 12.2 308 12.5 101880 63
2005-05-19 07:45:44 51°15.34 2°43.316 11.7 232 12.5 101880 63
2005-05-19 07:45:49 51°15.342 2°43.288 10.8 226 12.5 101880 63
2005-05-19 07:45:54 51°15.344 2°43.258 11.3 313 12.5 101870 63
2005-05-19 07:45:59 51°15.346 2°43.233 10.2 312 12.5 101870 63
2005-05-19 07:46:03 51°15.349 2°43.208 11.8 316 12.6 101870 63
2005-05-19 07:46:09 51°15.351 2°43.178 11.4 44 12.6 101870 63
2005-05-19 07:46:13 51°15.353 2°43.153 11.4 315 12.5 101880 63
2005-05-19 07:46:19 51°15.355 2°43.123 11.5 41 12.5 101880 63
2005-05-19 07:46:23 51°15.357 2°43.098 12.1 315 12.5 101870 63
2005-05-19 07:46:29 51°15.359 2°43.067 11.3 311 12.5 101870 63
2005-05-19 07:46:33 51°15.361 2°43.045 10.6 316 12.5 101880 63
2005-05-19 07:46:39 51°15.363 2°43.009 11.1 316 12.5 101880 63
2005-05-19 07:46:43 51°15.365 2°42.987 12.5 312 12.5 101880 62
2005-05-19 07:46:49 51°15.367 2°42.957 12.1 314 12.5 101880 62
2005-05-19 07:46:54 51°15.369 2°42.929 12.1 311 12.6 101870 62
2005-05-19 07:46:59 51°15.372 2°42.899 11.2 310 12.6 101870 62
2005-05-19 07:47:03 51°15.373 2°42.876 11.8 227 12.6 101870 63
2005-05-19 07:47:09 51°15.376 2°42.846 11.6 226 12.6 101870 63
2005-05-19 07:47:13 51°15.378 2°42.821 12.4 231 12.6 101870 61
2005-05-19 07:47:19 51°15.38 2°42.788 10.9 228 12.6 101870 61
2005-05-19 07:47:23 51°15.381 2°42.765 12 43 12.6 101880 62
2005-05-19 07:47:29 51°15.384 2°42.735 11.1 227 12.6 101880 62
2005-05-19 07:47:34 51°15.386 2°42.708 11 316 12.6 101880 62
2005-05-19 07:47:39 51°15.388 2°42.678 12 317 12.6 101880 62
2005-05-19 07:47:44 51°15.39 2°42.652 12.8 43 12.6 101880 62
2005-05-19 07:47:49 51°15.392 2°42.625 13.3 228 12.6 101880 62
2005-05-19 07:47:54 51°15.394 2°42.597 11.6 228 12.6 101880 62
2005-05-19 07:47:59 51°15.396 2°42.569 11.7 314 12.6 101880 62
2005-05-19 07:48:04 51°15.399 2°42.542 12.9 228 12.6 101880 62
2005-05-19 07:48:09 51°15.401 2°42.514 13.4 314 12.6 101880 62
2005-05-19 07:48:13 51°15.402 2°42.492 11.8 314 12.6 101870 62
2005-05-19 07:48:19 51°15.405 2°42.459 12.5 315 12.6 101870 62
2005-05-19 07:48:23 51°15.406 2°42.435 12.4 317 12.6 101870 61
2005-05-19 07:48:29 51°15.408 2°42.404 12.4 42 12.6 101870 61
2005-05-19 07:48:33 51°15.411 2°42.379 11.6 317 12.6 101880 61
2005-05-19 07:48:39 51°15.413 2°42.349 11.3 227 12.6 101880 61
2005-05-19 07:48:44 51°15.416 2°42.321 12.3 315 12.6 101880 62
2005-05-19 07:48:49 51°15.418 2°42.294 11.9 314 12.6 101880 62
2005-05-19 07:48:54 51°15.422 2°42.267 11.7 227 12.6 101880 62
2005-05-19 07:48:59 51°15.426 2°42.24 11.9 315 12.6 101880 62
2005-05-19 07:49:03 51°15.429 2°42.215 11.2 320 12.6 101880 63
2005-05-19 07:49:09 51°15.433 2°42.185 12.2 314 12.6 101880 63
2005-05-19 07:49:14 51°15.437 2°42.158 10 313 12.6 101880 62
2005-05-19 07:49:19 51°15.442 2°42.129 12.8 311 12.6 101880 62
2005-05-19 07:49:23 51°15.446 2°42.107 10.7 231 12.6 101880 62
2005-05-19 07:49:29 51°15.451 2°42.078 11.5 309 12.6 101880 62
2005-05-19 07:49:33 51°15.456 2°42.057 11.5 308 12.6 101890 62
2005-05-19 07:49:39 51°15.463 2°42.025 12.4 303 12.6 101890 62
2005-05-19 07:49:43 51°15.469 2°42.002 11.9 306 12.6 101880 62
2005-05-19 07:49:49 51°15.477 2°41.974 10.2 306 12.6 101880 62
2005-05-19 07:49:53 51°15.483 2°41.954 9.7 311 12.6 101880 62
2005-05-19 07:49:59 51°15.492 2°41.92 8.8 305 12.6 101880 62
2005-05-19 07:50:04 51°15.5 2°41.898 9.8 307 12.6 101890 61
2005-05-19 07:50:09 51°15.508 2°41.873 8.7 308 12.6 101890 61
2005-05-19 07:50:13 51°15.515 2°41.853 10.5 301 12.6 101890 62
2005-05-19 07:50:19 51°15.527 2°41.824 8.8 294 12.6 101890 62
2005-05-19 07:50:23 51°15.535 2°41.802 8.6 297 12.6 101890 63
2005-05-19 07:50:29 51°15.547 2°41.777 8.1 306 12.6 101890 63
2005-05-19 07:50:33 51°15.556 2°41.756 9 303 12.6 101900 63
2005-05-19 07:50:39 51°15.569 2°41.731 9.1 298 12.6 101900 63
2005-05-19 07:50:44 51°15.579 2°41.708 9.1 297 12.7 101900 62
2005-05-19 07:50:49 51°15.591 2°41.685 8.6 298 12.7 101900 62
2005-05-19 07:50:54 51°15.603 2°41.66 8.7 299 12.7 101900 63
2005-05-19 07:50:59 51°15.614 2°41.638 9 296 12.7 101900 63
2005-05-19 07:51:03 51°15.623 2°41.62 9.6 302 12.7 101900 63
2005-05-19 07:51:09 51°15.635 2°41.594 9.7 297 12.7 101900 63
2005-05-19 07:51:14 51°15.646 2°41.571 8.8 292 12.7 101900 63
2005-05-19 07:51:19 51°15.658 2°41.546 7.9 306 12.7 101900 63
2005-05-19 07:51:23 51°15.666 2°41.527 8.9 295 12.7 101900 62
2005-05-19 07:51:29 51°15.678 2°41.502 9.9 302 12.7 101900 62
2005-05-19 07:51:33 51°15.686 2°41.484 8.8 293 12.7 101900 62
2005-05-19 07:51:39 51°15.7 2°41.455 8.9 292 12.7 101900 62
2005-05-19 07:51:43 51°15.71 2°41.435 8.1 306 12.7 101900 63
2005-05-19 07:51:49 51°15.721 2°41.409 9.8 310 12.7 101900 63
2005-05-19 07:51:53 51°15.731 2°41.391 8.2 307 12.7 101900 62
2005-05-19 07:51:59 51°15.744 2°41.361 8.6 -999 12.7 101900 62
2005-05-19 07:52:04 51°15.755 2°41.34 9.4 300 12.7 101890 61
2005-05-19 07:52:09 51°15.765 2°41.317 8.6 300 12.7 101890 61
2005-05-19 07:52:13 51°15.775 2°41.296 10.1 300 12.7 101900 62
2005-05-19 07:52:19 51°15.787 2°41.27 9.1 297 12.7 101900 62
2005-05-19 07:52:23 51°15.797 2°41.249 9.2 302 12.7 101900 63
2005-05-19 07:52:29 51°15.809 2°41.223 8.5 299 12.7 101900 63
2005-05-19 07:52:33 51°15.818 2°41.205 9 299 12.7 101900 63
2005-05-19 07:52:39 51°15.831 2°41.177 8.5 294 12.7 101900 63
2005-05-19 07:52:43 51°15.841 2°41.156 8.1 299 12.7 101890 62
2005-05-19 07:52:49 51°15.853 2°41.131 8.4 302 12.7 101890 62
2005-05-19 07:52:54 51°15.864 2°41.107 8.9 293 12.7 101890 62
2005-05-19 07:52:59 51°15.875 2°41.084 8.9 300 12.7 101890 62
2005-05-19 07:53:03 51°15.885 2°41.063 8.5 297 12.7 101900 62
2005-05-19 07:53:09 51°15.897 2°41.037 9 297 12.7 101900 62
2005-05-19 07:53:14 51°15.908 2°41.014 9.4 294 12.7 101890 63
2005-05-19 07:53:19 51°15.919 2°40.991 7.4 296 12.7 101890 63
2005-05-19 07:53:24 51°15.93 2°40.968 7.5 296 12.7 101890 63
2005-05-19 07:53:29 51°15.941 2°40.945 10 294 12.7 101890 63
2005-05-19 07:53:33 51°15.951 2°40.928 8 292 12.7 101890 63
2005-05-19 07:53:39 51°15.965 2°40.901 9.7 295 12.7 101890 63
2005-05-19 07:53:43 51°15.976 2°40.881 8.2 300 12.7 101900 63
2005-05-19 07:53:47 51°15.986 2°40.863 7.8 300 12.7 101900 63
2005-05-19 07:53:53 51°16 2°40.836 8.4 299 12.7 101900 62
2005-05-19 07:53:59 51°16.015 2°40.809 8.5 294 12.7 101900 62
2005-05-19 07:54:03 51°16.025 2°40.792 8.9 300 12.7 101890 62
2005-05-19 07:54:09 51°16.038 2°40.768 7.9 303 12.7 101890 62
2005-05-19 07:54:14 51°16.051 2°40.745 8 301 12.7 101900 63
2005-05-19 07:54:19 51°16.065 2°40.721 8.4 291 12.7 101900 63
2005-05-19 07:54:24 51°16.076 2°40.701 8.4 306 12.7 101890 63
2005-05-19 07:54:29 51°16.088 2°40.679 8.4 303 12.7 101890 63
2005-05-19 07:54:34 51°16.1 2°40.657 8.3 297 12.7 101900 63
2005-05-19 07:54:39 51°16.113 2°40.635 7.8 294 12.7 101900 63
2005-05-19 07:54:43 51°16.124 2°40.615 7.7 305 12.7 101890 63
2005-05-19 07:54:49 51°16.137 2°40.591 7.8 306 12.7 101890 63
2005-05-19 07:54:54 51°16.15 2°40.568 8.3 296 12.7 101900 64
2005-05-19 07:54:59 51°16.162 2°40.547 7.4 295 12.7 101900 64
2005-05-19 07:55:03 51°16.174 2°40.527 8 300 12.8 101900 63
2005-05-19 07:55:09 51°16.187 2°40.502 7.7 303 12.8 101900 63
2005-05-19 07:55:13 51°16.198 2°40.482 8.5 295 12.8 101900 64
2005-05-19 07:55:19 51°16.212 2°40.458 9.4 294 12.8 101900 64
2005-05-19 07:55:23 51°16.223 2°40.439 8.3 292 12.8 101900 64
2005-05-19 07:55:29 51°16.236 2°40.418 8.5 302 12.8 101900 64
2005-05-19 07:55:32 51°16.243 2°40.404 8.2 285 12.8 101900 64
2005-05-19 07:55:39 51°16.257 2°40.381 8.2 289 12.8 101900 64
2005-05-19 07:55:43 51°16.265 2°40.366 8 286 12.8 101900 63
2005-05-19 07:55:49 51°16.274 2°40.349 7.9 287 12.8 101900 63
2005-05-19 07:55:53 51°16.281 2°40.337 8 290 12.8 101900 63
2005-05-19 07:55:59 51°16.288 2°40.319 7.9 294 12.8 101900 63
2005-05-19 07:56:03 51°16.292 2°40.307 8 293 12.8 101900 63
2005-05-19 07:56:09 51°16.296 2°40.292 8.6 294 12.8 101900 63
2005-05-19 07:56:13 51°16.298 2°40.282 8.3 305 12.8 101900 63
2005-05-19 07:56:19 51°16.3 2°40.268 10.3 300 12.8 101900 63
2005-05-19 07:56:24 51°16.301 2°40.257 8.8 306 12.8 101890 63
2005-05-19 07:56:29 51°16.301 2°40.248 9.6 308 12.8 101890 63
2005-05-19 07:56:33 51°16.301 2°40.24 9.5 306 12.8 101890 63
2005-05-19 07:56:39 51°16.301 2°40.23 8.5 313 12.8 101890 63
2005-05-19 07:56:44 51°16.301 2°40.224 8.7 313 12.8 101890 62
2005-05-19 07:56:49 51°16.301 2°40.217 9.8 308 12.8 101890 62
2005-05-19 07:56:54 51°16.3 2°40.21 9.8 310 12.8 101890 63
2005-05-19 07:56:59 51°16.301 2°40.205 9.5 304 12.8 101890 63
2005-05-19 07:57:04 51°16.3 2°40.199 8.7 308 12.8 101890 63
2005-05-19 07:57:09 51°16.3 2°40.194 9.4 314 12.8 101890 63
2005-05-19 07:57:14 51°16.3 2°40.191 9.9 305 12.8 101890 63
2005-05-19 07:57:19 51°16.3 2°40.187 9.7 232 12.8 101890 63
2005-05-19 07:57:23 51°16.3 2°40.184 8.7 309 12.8 101890 63
2005-05-19 07:57:29 51°16.3 2°40.182 10.2 315 12.8 101890 63
2005-05-19 07:57:34 51°16.3 2°40.18 9 316 12.8 101890 63
2005-05-19 07:57:39 51°16.301 2°40.18 8.7 314 12.8 101890 63
2005-05-19 07:57:43 51°16.301 2°40.18 8.1 40 12.8 101890 63
2005-05-19 07:57:49 51°16.302 2°40.18 9.5 323 12.8 101890 63
2005-05-19 07:57:54 51°16.304 2°40.181 9.6 318 12.8 101890 63
2005-05-19 07:57:59 51°16.305 2°40.182 8.7 319 12.8 101890 63
2005-05-19 07:58:04 51°16.306 2°40.182 8.6 318 12.8 101900 63
2005-05-19 07:58:09 51°16.307 2°40.184 8.4 322 12.8 101900 63
2005-05-19 07:58:14 51°16.309 2°40.184 9 322 12.8 101900 63
2005-05-19 07:58:19 51°16.31 2°40.186 8.4 320 12.8 101900 63
2005-05-19 07:58:23 51°16.311 2°40.186 7.9 42 12.7 101900 63
2005-05-19 07:58:28 51°16.313 2°40.187 8.2 316 12.7 101900 63
2005-05-19 07:58:34 51°16.314 2°40.188 7.9 318 12.7 101900 63
2005-05-19 07:58:39 51°16.316 2°40.19 8.1 41 12.7 101900 63
2005-05-19 07:58:43 51°16.317 2°40.191 8.2 316 12.8 101900 63
2005-05-19 07:58:49 51°16.319 2°40.192 8.6 314 12.8 101900 63
2005-05-19 07:58:54 51°16.32 2°40.194 8.3 41 12.8 101900 64
2005-05-19 07:58:59 51°16.322 2°40.195 8.2 -999 12.8 101900 64
2005-05-19 07:59:04 51°16.323 2°40.196 7.9 313 12.7 101900 64
2005-05-19 07:59:09 51°16.325 2°40.197 6.9 314 12.7 101900 64
2005-05-19 07:59:14 51°16.326 2°40.199 7.2 315 12.8 101900 64
2005-05-19 07:59:19 51°16.328 2°40.2 8 312 12.8 101900 64
2005-05-19 07:59:23 51°16.329 2°40.201 7.9 313 12.8 101900 64
2005-05-19 07:59:28 51°16.331 2°40.203 7.8 307 12.8 101900 64
2005-05-19 07:59:33 51°16.333 2°40.204 8.1 310 12.8 101900 64
2005-05-19 07:59:39 51°16.335 2°40.206 8.2 310 12.8 101900 64
2005-05-19 07:59:44 51°16.337 2°40.208 7 298 12.8 101900 64
2005-05-19 07:59:49 51°16.338 2°40.209 8.9 307 12.8 101900 64
2005-05-19 07:59:54 51°16.34 2°40.211 8.6 304 12.8 101900 65
2005-05-19 07:59:59 51°16.342 2°40.212 8.4 304 12.8 101900 65
2005-05-19 08:00:03 51°16.343 2°40.213 9.1 305 12.8 101900 65
2005-05-19 08:00:09 51°16.345 2°40.215 8.7 301 12.8 101900 65
2005-05-19 08:00:14 51°16.347 2°40.217 8.6 302 12.8 101900 65
2005-05-19 08:00:19 51°16.349 2°40.219 8.2 293 12.8 101900 65
2005-05-19 08:00:23 51°16.351 2°40.22 7.8 293 12.8 101900 64
2005-05-19 08:00:29 51°16.353 2°40.222 8.5 291 12.8 101900 64
2005-05-19 08:00:34 51°16.354 2°40.224 8.8 289 12.8 101890 64
2005-05-19 08:00:39 51°16.356 2°40.225 7.6 286 12.8 101890 64
2005-05-19 08:00:43 51°16.358 2°40.227 8.2 282 12.8 101900 64
2005-05-19 08:00:49 51°16.36 2°40.228 7.1 284 12.8 101900 64
2005-05-19 08:00:54 51°16.362 2°40.229 8.2 280 12.7 101900 63
2005-05-19 08:00:59 51°16.364 2°40.23 8.4 282 12.7 101900 63
2005-05-19 08:01:04 51°16.366 2°40.23 9 285 12.8 101900 63
2005-05-19 08:01:09 51°16.368 2°40.23 8.1 275 12.8 101900 63
2005-05-19 08:01:13 51°16.369 2°40.23 9.1 277 12.8 101900 63
2005-05-19 08:01:19 51°16.371 2°40.229 8.5 278 12.8 101900 63
2005-05-19 08:01:23 51°16.373 2°40.228 8.8 278 12.8 101900 63
2005-05-19 08:01:29 51°16.375 2°40.227 8.1 279 12.8 101900 63
2005-05-19 08:01:34 51°16.377 2°40.226 9.1 277 12.8 101900 63
2005-05-19 08:01:39 51°16.379 2°40.226 8.3 275 12.8 101900 63
2005-05-19 08:01:43 51°16.38 2°40.224 8.5 280 12.8 101900 64
2005-05-19 08:01:49 51°16.382 2°40.222 7.8 278 12.8 101900 64
2005-05-19 08:01:54 51°16.384 2°40.222 8.6 275 12.8 101900 64
2005-05-19 08:01:59 51°16.386 2°40.219 8.9 274 12.8 101900 64
2005-05-19 08:02:04 51°16.388 2°40.217 8.7 276 12.8 101910 64
2005-05-19 08:02:09 51°16.389 2°40.215 9.2 277 12.8 101910 64
2005-05-19 08:02:14 51°16.392 2°40.213 9.3 278 12.8 101900 65
2005-05-19 08:02:19 51°16.393 2°40.211 9.2 283 12.8 101900 65
2005-05-19 08:02:24 51°16.395 2°40.208 8.8 273 12.8 101900 64
2005-05-19 08:02:29 51°16.397 2°40.206 8.8 278 12.8 101900 64
2005-05-19 08:02:34 51°16.4 2°40.203 9.1 276 12.8 101900 64
2005-05-19 08:02:39 51°16.401 2°40.201 8.9 280 12.8 101900 64
2005-05-19 08:02:44 51°16.403 2°40.198 7.6 269 12.8 101900 64
2005-05-19 08:02:49 51°16.405 2°40.196 10 271 12.8 101900 64
2005-05-19 08:02:53 51°16.407 2°40.193 8.7 276 12.8 101900 64
2005-05-19 08:02:59 51°16.41 2°40.19 9.4 269 12.8 101900 64
2005-05-19 08:03:04 51°16.412 2°40.187 8.3 272 12.8 101900 64
2005-05-19 08:03:09 51°16.414 2°40.184 9 275 12.8 101900 64
2005-05-19 08:03:13 51°16.416 2°40.182 8.9 264 12.8 101900 64
2005-05-19 08:03:19 51°16.419 2°40.179 7.4 264 12.8 101900 64
2005-05-19 08:03:24 51°16.421 2°40.176 8.8 267 12.8 101900 64
2005-05-19 08:03:29 51°16.424 2°40.173 7.4 268 12.8 101900 64
2005-05-19 08:03:33 51°16.426 2°40.17 8.6 269 12.8 101900 64
2005-05-19 08:03:39 51°16.429 2°40.167 7.3 263 12.8 101900 64
2005-05-19 08:03:43 51°16.431 2°40.165 7.4 263 12.8 101900 64
2005-05-19 08:03:49 51°16.434 2°40.161 5.9 259 12.8 101900 64
2005-05-19 08:03:53 51°16.437 2°40.159 6.8 260 12.8 101900 64
2005-05-19 08:03:59 51°16.441 2°40.156 5.1 256 12.8 101900 64
2005-05-19 08:04:04 51°16.443 2°40.153 3.3 258 12.8 101900 64
2005-05-19 08:04:09 51°16.447 2°40.151 5.2 255 12.8 101900 64
2005-05-19 08:04:13 51°16.45 2°40.149 5.1 257 12.8 101900 64
2005-05-19 08:04:19 51°16.454 2°40.147 4.8 254 12.8 101900 64
2005-05-19 08:04:24 51°16.458 2°40.145 6.9 245 12.7 101900 63
2005-05-19 08:04:29 51°16.462 2°40.143 6.2 241 12.7 101900 63
2005-05-19 08:04:33 51°16.465 2°40.141 5.8 244 12.7 101900 63
2005-05-19 08:04:39 51°16.47 2°40.139 5.8 238 12.7 101900 63
2005-05-19 08:04:44 51°16.474 2°40.138 6.4 239 12.7 101900 64
2005-05-19 08:04:49 51°16.478 2°40.137 7.5 230 12.7 101900 64
2005-05-19 08:04:53 51°16.481 2°40.136 6.8 230 12.7 101900 63
2005-05-19 08:04:59 51°16.487 2°40.135 5.6 230 12.7 101900 63
2005-05-19 08:05:04 51°16.491 2°40.135 6 231 12.7 101900 64
2005-05-19 08:05:08 51°16.495 2°40.135 5.5 221 12.7 101900 64
2005-05-19 08:05:14 51°16.5 2°40.134 6.3 216 12.7 101900 64
2005-05-19 08:05:19 51°16.505 2°40.135 6 213 12.7 101900 64
2005-05-19 08:05:23 51°16.509 2°40.135 5.4 214 12.7 101900 64
2005-05-19 08:05:28 51°16.514 2°40.136 6 208 12.7 101900 64
2005-05-19 08:05:34 51°16.519 2°40.137 6.2 200 12.7 101910 63
2005-05-19 08:05:39 51°16.525 2°40.139 4.9 199 12.7 101910 63
2005-05-19 08:05:43 51°16.529 2°40.14 5 194 12.7 101900 63
2005-05-19 08:05:49 51°16.534 2°40.142 3 191 12.7 101900 63
2005-05-19 08:05:54 51°16.539 2°40.144 3.1 181 12.6 101900 64
2005-05-19 08:05:59 51°16.544 2°40.146 3.4 176 12.6 101900 64
2005-05-19 08:06:03 51°16.548 2°40.149 5.9 176 12.6 101900 63
2005-05-19 08:06:09 51°16.554 2°40.152 6.4 174 12.6 101900 63
2005-05-19 08:06:13 51°16.557 2°40.155 6.8 166 12.7 101900 65
2005-05-19 08:06:19 51°16.563 2°40.159 6 161 12.7 101900 65
2005-05-19 08:06:24 51°16.568 2°40.164 6 159 12.7 101910 64
2005-05-19 08:06:29 51°16.573 2°40.167 6.3 156 12.7 101910 64
2005-05-19 08:06:34 51°16.577 2°40.172 6.2 150 12.7 101900 63
2005-05-19 08:06:39 51°16.582 2°40.176 6 143 12.7 101900 63
2005-05-19 08:06:44 51°16.586 2°40.181 5.7 147 12.7 101910 64
2005-05-19 08:06:49 51°16.59 2°40.186 6.2 145 12.7 101910 64
2005-05-19 08:06:54 51°16.594 2°40.191 6.7 135 12.7 101910 65
2005-05-19 08:06:59 51°16.598 2°40.196 5.9 135 12.7 101910 65
2005-05-19 08:07:03 51°16.601 2°40.201 6.1 129 12.7 101900 65
2005-05-19 08:07:09 51°16.606 2°40.208 6.9 129 12.7 101900 65
2005-05-19 08:07:14 51°16.609 2°40.213 7 129 12.7 101900 65
2005-05-19 08:07:19 51°16.613 2°40.22 6.9 130 12.7 101900 65
2005-05-19 08:07:23 51°16.616 2°40.225 6.9 122 12.7 101910 65
2005-05-19 08:07:28 51°16.619 2°40.231 7.3 122 12.7 101910 65
2005-05-19 08:07:33 51°16.621 2°40.236 7.9 121 12.7 101910 66
2005-05-19 08:07:39 51°16.625 2°40.245 8.2 119 12.7 101910 66
2005-05-19 08:07:44 51°16.628 2°40.25 7 116 12.7 101910 65
2005-05-19 08:07:49 51°16.63 2°40.257 7.7 115 12.7 101910 65
2005-05-19 08:07:54 51°16.632 2°40.263 7.8 110 12.7 101900 66
2005-05-19 08:07:59 51°16.635 2°40.27 7.8 109 12.7 101900 66
2005-05-19 08:08:04 51°16.637 2°40.276 7 111 12.7 101900 65
2005-05-19 08:08:09 51°16.639 2°40.283 8 107 12.7 101900 65
2005-05-19 08:08:14 51°16.641 2°40.289 7.1 107 12.7 101900 65
2005-05-19 08:08:19 51°16.643 2°40.296 7 100 12.7 101900 65
2005-05-19 08:08:23 51°16.644 2°40.301 6.6 96 12.7 101910 65
2005-05-19 08:08:28 51°16.646 2°40.308 6.1 97 12.7 101910 65
2005-05-19 08:08:33 51°16.647 2°40.313 7.9 94 12.7 101900 65
2005-05-19 08:08:39 51°16.649 2°40.321 8 91 12.7 101900 65
2005-05-19 08:08:44 51°16.651 2°40.326 7.8 93 12.7 101900 65
2005-05-19 08:08:49 51°16.652 2°40.332 8.1 86 12.7 101900 65
2005-05-19 08:08:54 51°16.654 2°40.337 8.1 93 12.7 101900 66
2005-05-19 08:08:59 51°16.655 2°40.342 8.5 87 12.7 101900 66
2005-05-19 08:09:04 51°16.656 2°40.347 8.1 85 12.6 101900 66
2005-05-19 08:09:09 51°16.658 2°40.353 7.3 87 12.6 101900 66
2005-05-19 08:09:14 51°16.659 2°40.358 7.9 89 12.6 101900 65
2005-05-19 08:09:18 51°16.66 2°40.362 7.2 90 12.6 101900 65
2005-05-19 08:09:23 51°16.661 2°40.367 6.3 80 12.7 101900 65
2005-05-19 08:09:29 51°16.662 2°40.374 6.1 81 12.7 101900 65
2005-05-19 08:09:32 51°16.662 2°40.378 7.3 69 12.6 101900 66
2005-05-19 08:09:39 51°16.662 2°40.388 7.9 65 12.6 101900 66
2005-05-19 08:09:44 51°16.662 2°40.394 8.5 53 12.6 101900 67
2005-05-19 08:09:49 51°16.66 2°40.402 8.9 49 12.6 101900 67
2005-05-19 08:09:54 51°16.659 2°40.409 8.5 43 12.6 101890 66
2005-05-19 08:09:59 51°16.656 2°40.416 9.5 37 12.6 101890 66
2005-05-19 08:10:04 51°16.653 2°40.421 9.1 30 12.6 101890 66
2005-05-19 08:10:09 51°16.65 2°40.426 8.7 24 12.6 101890 66
2005-05-19 08:10:13 51°16.647 2°40.43 9.3 17 12.6 101890 66
2005-05-19 08:10:19 51°16.641 2°40.434 10.7 13 12.6 101890 66
2005-05-19 08:10:24 51°16.637 2°40.436 9.5 7 12.6 101880 66
2005-05-19 08:10:29 51°16.632 2°40.438 9.7 4 12.6 101880 66
2005-05-19 08:10:34 51°16.627 2°40.438 9.4 357 12.6 101880 66
2005-05-19 08:10:39 51°16.622 2°40.438 9.9 353 12.6 101880 66
2005-05-19 08:10:43 51°16.617 2°40.437 9.8 353 12.6 101880 65
2005-05-19 08:10:49 51°16.611 2°40.435 10.2 357 12.6 101880 65
2005-05-19 08:10:54 51°16.605 2°40.433 10.2 351 12.6 101890 66
2005-05-19 08:10:59 51°16.599 2°40.43 10 352 12.6 101890 66
2005-05-19 08:11:04 51°16.593 2°40.427 9.9 354 12.6 101890 66
2005-05-19 08:11:09 51°16.586 2°40.423 10.6 353 12.6 101890 66
2005-05-19 08:11:14 51°16.581 2°40.42 10.8 352 12.6 101880 66
2005-05-19 08:11:19 51°16.575 2°40.417 11.1 350 12.6 101880 66
2005-05-19 08:11:23 51°16.57 2°40.413 10 346 12.6 101880 66
2005-05-19 08:11:29 51°16.564 2°40.409 11.2 350 12.6 101880 66
2005-05-19 08:11:34 51°16.558 2°40.405 10.6 347 12.6 101880 66
2005-05-19 08:11:39 51°16.552 2°40.401 11.1 349 12.6 101880 66
2005-05-19 08:11:43 51°16.547 2°40.397 10.7 351 12.6 101880 66
2005-05-19 08:11:49 51°16.541 2°40.392 10.2 350 12.6 101880 66
2005-05-19 08:11:54 51°16.533 2°40.387 11.5 352 12.6 101870 65
2005-05-19 08:11:59 51°16.527 2°40.383 10.9 354 12.6 101870 65
2005-05-19 08:12:04 51°16.521 2°40.379 11 352 12.7 101870 65
2005-05-19 08:12:09 51°16.516 2°40.375 11.1 352 12.7 101870 65
2005-05-19 08:12:13 51°16.511 2°40.372 11.9 352 12.7 101870 65
2005-05-19 08:12:19 51°16.504 2°40.367 11 348 12.7 101870 65
2005-05-19 08:12:24 51°16.498 2°40.364 11.5 352 12.7 101880 65
2005-05-19 08:12:29 51°16.492 2°40.36 11.4 347 12.7 101880 65
2005-05-19 08:12:33 51°16.487 2°40.357 10.9 353 12.7 101870 64
2005-05-19 08:12:39 51°16.48 2°40.353 11.1 350 12.7 101870 64
2005-05-19 08:12:44 51°16.474 2°40.349 11.3 351 12.7 101870 64
2005-05-19 08:12:49 51°16.468 2°40.345 11.6 352 12.7 101870 64
2005-05-19 08:12:54 51°16.461 2°40.341 11.2 350 12.7 101870 64
2005-05-19 08:12:59 51°16.455 2°40.337 12.1 349 12.7 101870 64
2005-05-19 08:13:04 51°16.449 2°40.333 12 352 12.7 101870 65
2005-05-19 08:13:09 51°16.443 2°40.329 11.3 351 12.7 101870 65
2005-05-19 08:13:14 51°16.437 2°40.325 12.1 348 12.7 101870 64
2005-05-19 08:13:19 51°16.429 2°40.32 11.7 349 12.7 101870 64
2005-05-19 08:13:23 51°16.423 2°40.316 11.8 348 12.7 101870 64
2005-05-19 08:13:29 51°16.415 2°40.31 11.9 346 12.7 101870 64
2005-05-19 08:13:33 51°16.409 2°40.306 12.7 349 12.7 101860 64
2005-05-19 08:13:39 51°16.398 2°40.299 11.7 349 12.7 101860 64
2005-05-19 08:13:44 51°16.391 2°40.294 11.9 348 12.7 101870 64
2005-05-19 08:13:49 51°16.382 2°40.289 10.9 350 12.7 101870 64
2005-05-19 08:13:53 51°16.375 2°40.284 10.9 350 12.8 101860 64
2005-05-19 08:13:59 51°16.365 2°40.278 11.2 351 12.8 101860 64
2005-05-19 08:14:04 51°16.357 2°40.272 10.9 353 12.8 101860 64
2005-05-19 08:14:09 51°16.35 2°40.268 11.1 347 12.8 101860 64
2005-05-19 08:14:14 51°16.343 2°40.263 4.4 353 12.8 101870 65
2005-05-19 08:14:19 51°16.336 2°40.259 11.7 351 12.8 101870 65
2005-05-19 08:14:24 51°16.33 2°40.256 11.2 349 12.8 101860 65
2005-05-19 08:14:29 51°16.325 2°40.253 10.8 345 12.8 101860 65
2005-05-19 08:14:34 51°16.32 2°40.249 9.7 348 12.8 101870 65
2005-05-19 08:14:39 51°16.314 2°40.246 10.8 344 12.8 101870 65
2005-05-19 08:14:44 51°16.309 2°40.244 11.1 348 12.8 101870 64
2005-05-19 08:14:49 51°16.305 2°40.242 10.2 346 12.8 101870 64
2005-05-19 08:14:53 51°16.301 2°40.24 10.2 351 12.8 101860 64
2005-05-19 08:14:59 51°16.296 2°40.238 10.3 350 12.8 101860 64
2005-05-19 08:15:03 51°16.293 2°40.237 8.4 355 12.8 101860 64
2005-05-19 08:15:09 51°16.29 2°40.237 8.7 355 12.8 101860 64
2005-05-19 08:15:13 51°16.288 2°40.237 8.4 358 12.8 101860 64
2005-05-19 08:15:19 51°16.286 2°40.237 7.6 358 12.8 101860 64
2005-05-19 08:15:23 51°16.286 2°40.238 7.4 2 12.8 101860 65
2005-05-19 08:15:29 51°16.285 2°40.239 8 1 12.8 101860 65
2005-05-19 08:15:34 51°16.284 2°40.24 7.9 5 12.8 101870 65
2005-05-19 08:15:39 51°16.284 2°40.242 8 3 12.8 101870 65
2005-05-19 08:15:44 51°16.283 2°40.243 8 4 12.8 101870 65
2005-05-19 08:15:49 51°16.283 2°40.244 8.7 7 12.8 101870 65
2005-05-19 08:15:54 51°16.282 2°40.246 8.1 5 12.8 101870 65
2005-05-19 08:15:59 51°16.282 2°40.248 8.1 9 12.8 101870 65
2005-05-19 08:16:03 51°16.281 2°40.249 8.1 12 12.8 101870 65
2005-05-19 08:16:09 51°16.281 2°40.251 8 14 12.8 101870 65
2005-05-19 08:16:13 51°16.281 2°40.253 7.8 12 12.9 101870 64
2005-05-19 08:16:19 51°16.281 2°40.255 7.6 14 12.9 101870 64
2005-05-19 08:16:23 51°16.281 2°40.257 7.5 16 12.8 101870 65
2005-05-19 08:16:29 51°16.281 2°40.259 7 20 12.8 101870 65
2005-05-19 08:16:34 51°16.281 2°40.262 7.5 21 12.8 101870 64
2005-05-19 08:16:39 51°16.281 2°40.264 6.9 19 12.8 101870 64
2005-05-19 08:16:43 51°16.281 2°40.266 7.2 24 12.8 101870 65
2005-05-19 08:16:49 51°16.281 2°40.269 6.5 23 12.8 101870 65
2005-05-19 08:16:53 51°16.281 2°40.271 7.2 24 12.8 101870 65
2005-05-19 08:16:59 51°16.282 2°40.275 7.5 21 12.8 101870 65
2005-05-19 08:17:03 51°16.282 2°40.277 6.8 27 12.8 101870 66
2005-05-19 08:17:09 51°16.282 2°40.28 7.6 32 12.8 101870 66
2005-05-19 08:17:13 51°16.283 2°40.282 7.3 32 12.8 101870 66
2005-05-19 08:17:19 51°16.283 2°40.286 6.4 36 12.8 101870 66
2005-05-19 08:17:23 51°16.284 2°40.288 7.1 38 12.8 101880 65
2005-05-19 08:17:29 51°16.284 2°40.291 7.3 43 12.8 101880 65
2005-05-19 08:17:34 51°16.285 2°40.294 7.4 40 12.8 101870 65
2005-05-19 08:17:39 51°16.285 2°40.297 7.3 48 12.8 101870 65
2005-05-19 08:17:43 51°16.286 2°40.3 7.2 49 12.8 101870 66
2005-05-19 08:17:49 51°16.287 2°40.303 6.8 47 12.8 101870 66
2005-05-19 08:17:53 51°16.288 2°40.306 7.7 51 12.7 101870 65
2005-05-19 08:17:58 51°16.289 2°40.309 7.4 44 12.7 101870 65
2005-05-19 08:18:04 51°16.29 2°40.313 7.4 54 12.7 101870 65
2005-05-19 08:18:09 51°16.29 2°40.316 7 55 12.7 101870 65
2005-05-19 08:18:13 51°16.291 2°40.319 7.7 56 12.7 101870 66
2005-05-19 08:18:19 51°16.293 2°40.323 7.8 55 12.7 101870 66
2005-05-19 08:18:23 51°16.293 2°40.326 8.3 60 12.7 101870 67
2005-05-19 08:18:29 51°16.295 2°40.329 6.8 66 12.7 101870 67
2005-05-19 08:18:34 51°16.296 2°40.332 7.5 61 12.7 101870 66